Simultaneous Nadir Overpasses (SNOs) Predictions

Prediction of SNOs between GOES-17 and LANDSAT-8 Satellite Orbit:

Table of predicted SNOs for the next 14.0 days since TLE Epoch: 8/13/2022
Index Date Time (GOES-17) GOES-17 Lat,Lon LANDSAT-8 Lat,Lon Distance(km) Time Diff (sec)
1 08/13/2022 19:10:49 -0.04,-137.31 -0.66,-134.28 344.16 80
2 08/14/2022 07:29:34 0.04,-137.31 -0.40,-139.48 246.29 80
3 08/16/2022 07:20:03 0.04,-137.32 0.21,-136.52 90.30 80
4 08/16/2022 19:38:39 -0.04,-137.32 0.86,-141.69 496.03 80
5 08/18/2022 07:07:52 0.04,-137.32 0.84,-133.57 426.49 80
6 08/18/2022 19:26:28 -0.04,-137.32 0.23,-138.73 160.00 80
7 08/20/2022 19:16:56 -0.03,-137.31 -0.34,-135.76 175.41 80
8 08/21/2022 07:35:41 0.04,-137.30 -0.72,-140.96 415.29 80
9 08/23/2022 07:23:29 0.03,-137.28 -0.14,-137.99 80.85 80
10 08/25/2022 07:11:18 0.04,-137.26 0.51,-135.04 253.14 80
11 08/25/2022 19:32:33 -0.04,-137.25 0.56,-140.20 333.99 80
